Regional Weather Roundup
Issued by NWS

Home | Current Version | Previous Version | Text Only | Print | Product List | Glossary Off
Versions: 1 2 3 4 5 6 7 8 9 10 11 12 13 14 15 16 17 18 19 20 21 22 23 24 25 26 27 28 29 30 31 32 33 34 35 36 37 38 39 40 41 42 43 44 45 46 47 48 49 50

000
ASUS45 KBOI 181510
RWRID

IDAHO REGIONAL WEATHER ROUNDUP
NATIONAL WEATHER SERVICE BOISE ID
900 AM MDT WED OCT 18 2017

NOTE: "FAIR" INDICATES FEW OR NO CLOUDS BELOW 12000 FEET
WITH NO SIGNIFICANT WEATHER AND/OR OBSTRUCTIONS TO VISIBILITY

IDZ012-014-181600-
SOUTHWEST IDAHO


CITY           SKY/WX    TMP DP  RH WIND       PRES   REMARKS
BOISE          CLEAR     44  30  57 CALM      30.12S
CALDWELL       CLEAR     36  33  89 E10       30.13R WCI  28
MOUNTAIN HOME  CLEAR     35  25  67 E6        30.14S WCI  30
$$

IDZ016-017-181600-
SOUTHCENTRAL IDAHO


CITY           SKY/WX    TMP DP  RH WIND       PRES   REMARKS
BURLEY         SUNNY     40  24  53 CALM      30.18R
JEROME         SUNNY     45  26  47 E7        30.17S
TWIN FALLS     SUNNY     45  23  42 S12       30.17R
$$

IDZ019>023-181600-
SOUTHEAST IDAHO


CITY           SKY/WX    TMP DP  RH WIND       PRES   REMARKS
IDAHO FALLS    CLOUDY    32  26  78 N5        30.20R WCI  27
POCATELLO      CLOUDY    39  27  62 E6        30.20R WCI  35
REXBURG        CLOUDY    32  24  72 NE5       30.19R WCI  27
$$

IDZ006-010-011-018-031-032-181600-
CENTRAL IDAHO MOUNTAINS


CITY           SKY/WX    TMP DP  RH WIND       PRES   REMARKS
MCCALL         MOCLDY    31  27  85 CALM      30.14R
HAILEY         MOSUNNY   36  25  64 NW12      30.21S WCI  27
STANLEY          N/A     26  22  84 CALM      30.23R
SALMON         CLEAR     29  26  89 SE3       30.12R
CHALLIS        CLEAR     38  25  59 CALM      30.15R
$$

IDZ002-004-006-007-026-181600-
NORTHERN IDAHO


CITY           SKY/WX    TMP DP  RH WIND       PRES   REMARKS
LEWISTON       CLOUDY    50  40  68 CALM      30.02F
LOWELL           N/A     42  41  96 CALM      30.10S
COEUR D`ALENE  PTCLDY    44  34  67 S6        30.00F
MULLAN PASS    CLOUDY    34  29  82 SW8       30.01S WCI  27
$$



USA.gov is the U.S. government's official web portal to all federal, state and local government web resources and services.